When you browse on this site, cookies collect data to enhance your experience and personalize the content and advertising you see.
Visit our Privacy Policy to learn more. By continuing to use the site, you agree to this use of cookies and data.
  • In Österreich
  • Länderverzeichnis
  • Für 7 Tage
  • Wassertemperatur
  • Wetterkarte
  • News
  • Widgets
  • user-avatar
    Anmelden

    Stündliche Wetter Jalalabad

    Heute, 2 Juni, Dienstag

    Zeit Temperatur Niederschläge Wind Luftdruck Luftfeuchtigkeit
    00:00 +28°C° 0.2 mm 1 m/S 708 mmHg 55%
    01:00 +28°C° 0.2 mm 1 m/S 708 mmHg 58%
    02:00 +27°C° 0.2 mm 1 m/S 708 mmHg 60%
    03:00 +27°C° 0.1 mm 1 m/S 708 mmHg 62%
    04:00 +26°C° 0.1 mm 1 m/S 707 mmHg 63%
    05:00 +26°C° 0.1 mm 1 m/S 707 mmHg 65%
    06:00 +27°C° 0 mm 1 m/S 707 mmHg 61%
    07:00 +27°C° 0 mm 1 m/S 708 mmHg 57%
    08:00 +28°C° 0 mm 1 m/S 708 mmHg 53%
    09:00 +29°C° 0 mm 1 m/S 708 mmHg 47%
    10:00 +31°C° 0 mm 1 m/S 708 mmHg 42%
    11:00 +32°C° 0 mm 2 m/S 708 mmHg 37%
    12:00 +34°C° 0 mm 2 m/S 708 mmHg 32%
    13:00 +35°C° 0 mm 2 m/S 707 mmHg 28%
    14:00 +36°C° 0 mm 2 m/S 707 mmHg 23%
    15:00 +36°C° 0 mm 2 m/S 707 mmHg 22%
    16:00 +37°C° 0 mm 3 m/S 707 mmHg 21%
    17:00 +37°C° 0 mm 3 m/S 706 mmHg 20%
    18:00 +36°C° 0 mm 4 m/S 706 mmHg 26%
    19:00 +34°C° 0 mm 4 m/S 706 mmHg 32%
    20:00 +33°C° 0 mm 4 m/S 707 mmHg 39%
    21:00 +31°C° 0 mm 3 m/S 707 mmHg 42%
    22:00 +31°C° 0 mm 2 m/S 707 mmHg 45%
    23:00 +30°C° 0 mm 1 m/S 707 mmHg 48%

    Morgen, 3 Juni, Mittwoch

    Zeit Temperatur Niederschläge Wind Luftdruck Luftfeuchtigkeit
    00:00 +30°C° 0 mm 1 m/S 707 mmHg 50%
    01:00 +29°C° 0 mm 1 m/S 706 mmHg 51%
    02:00 +29°C° 0 mm 1 m/S 706 mmHg 53%
    03:00 +28°C° 0.1 mm 1 m/S 706 mmHg 54%
    04:00 +28°C° 0.1 mm 1 m/S 706 mmHg 56%
    05:00 +27°C° 0.1 mm 1 m/S 706 mmHg 57%
    06:00 +28°C° 0.2 mm 1 m/S 706 mmHg 53%
    07:00 +29°C° 0.2 mm 1 m/S 707 mmHg 50%
    08:00 +29°C° 0.2 mm 1 m/S 707 mmHg 47%
    09:00 +31°C° 0 mm 1 m/S 707 mmHg 43%
    10:00 +32°C° 0 mm 1 m/S 707 mmHg 38%
    11:00 +33°C° 0 mm 1 m/S 706 mmHg 34%
    12:00 +34°C° 0 mm 1 m/S 706 mmHg 30%
    13:00 +35°C° 0 mm 1 m/S 706 mmHg 26%
    14:00 +36°C° 0 mm 1 m/S 706 mmHg 22%
    15:00 +36°C° 0 mm 1 m/S 706 mmHg 21%
    16:00 +37°C° 0 mm 2 m/S 706 mmHg 20%
    17:00 +38°C° 0 mm 2 m/S 705 mmHg 19%
    18:00 +36°C° 0 mm 3 m/S 706 mmHg 25%
    19:00 +34°C° 0 mm 4 m/S 706 mmHg 31%
    20:00 +33°C° 0 mm 4 m/S 706 mmHg 37%
    21:00 +31°C° 0 mm 3 m/S 706 mmHg 39%
    22:00 +31°C° 0 mm 2 m/S 706 mmHg 40%
    23:00 +30°C° 0 mm 1 m/S 706 mmHg 42%

    übermorgen, 4 Juni, Donnerstag

    Zeit Temperatur Niederschläge Wind Luftdruck Luftfeuchtigkeit
    00:00 +30°C° 0 mm 1 m/S 706 mmHg 43%
    01:00 +30°C° 0 mm 1 m/S 706 mmHg 44%
    02:00 +27°C° 0 mm 0 m/S 706 mmHg 46%
    03:00 +27°C° 0.1 mm 0 m/S 706 mmHg 47%
    04:00 +27°C° 0.1 mm 0 m/S 706 mmHg 48%
    05:00 +27°C° 0.1 mm 0 m/S 706 mmHg 49%
    06:00 +27°C° 0 mm 0 m/S 706 mmHg 44%
    07:00 +28°C° 0 mm 0 m/S 706 mmHg 40%
    08:00 +29°C° 0 mm 0 m/S 707 mmHg 36%
    09:00 +32°C° 0 mm 1 m/S 707 mmHg 33%
    10:00 +33°C° 0 mm 1 m/S 707 mmHg 31%
    11:00 +35°C° 0 mm 1 m/S 707 mmHg 28%
    12:00 +35°C° 0 mm 1 m/S 706 mmHg 26%
    13:00 +37°C° 0 mm 2 m/S 706 mmHg 24%
    14:00 +38°C° 0 mm 2 m/S 706 mmHg 22%
    15:00 +38°C° 0 mm 2 m/S 705 mmHg 21%
    16:00 +39°C° 0 mm 3 m/S 705 mmHg 20%
    17:00 +39°C° 0 mm 3 m/S 705 mmHg 19%
    18:00 +38°C° 0 mm 3 m/S 705 mmHg 22%
    19:00 +37°C° 0 mm 2 m/S 705 mmHg 25%
    20:00 +36°C° 0 mm 2 m/S 706 mmHg 27%
    21:00 +35°C° 0 mm 2 m/S 706 mmHg 31%
    22:00 +33°C° 0 mm 1 m/S 706 mmHg 34%
    23:00 +33°C° 0 mm 1 m/S 706 mmHg 37%

    5 Juni, Freitag

    Zeit Temperatur Niederschläge Wind Luftdruck Luftfeuchtigkeit
    00:00 +32°C° 0 mm 1 m/S 706 mmHg 37%
    01:00 +32°C° 0 mm 1 m/S 706 mmHg 38%
    02:00 +31°C° 0 mm 1 m/S 706 mmHg 38%
    03:00 +30°C° 0 mm 1 m/S 706 mmHg 39%
    04:00 +30°C° 0 mm 1 m/S 706 mmHg 40%
    05:00 +29°C° 0 mm 1 m/S 706 mmHg 41%
    06:00 +29°C° 0 mm 0 m/S 706 mmHg 37%
    07:00 +30°C° 0 mm 0 m/S 706 mmHg 32%
    08:00 +31°C° 0 mm 0 m/S 707 mmHg 28%
    09:00 +32°C° 0 mm 0 m/S 707 mmHg 26%
    10:00 +35°C° 0 mm 1 m/S 707 mmHg 24%
    11:00 +36°C° 0 mm 1 m/S 707 mmHg 21%
    12:00 +37°C° 0 mm 1 m/S 706 mmHg 19%
    13:00 +39°C° 0 mm 1 m/S 706 mmHg 17%
    14:00 +40°C° 0 mm 1 m/S 706 mmHg 14%
    15:00 +40°C° 0 mm 2 m/S 705 mmHg 14%
    16:00 +42°C° 0 mm 3 m/S 705 mmHg 14%
    17:00 +42°C° 0 mm 4 m/S 705 mmHg 13%
    18:00 +40°C° 0 mm 3 m/S 705 mmHg 17%
    19:00 +38°C° 0 mm 3 m/S 705 mmHg 21%
    20:00 +37°C° 0 mm 3 m/S 705 mmHg 25%
    21:00 +36°C° 0 mm 2 m/S 705 mmHg 27%
    22:00 +35°C° 0 mm 2 m/S 705 mmHg 29%
    23:00 +34°C° 0 mm 1 m/S 706 mmHg 32%

    6 Juni, Samstag

    Zeit Temperatur Niederschläge Wind Luftdruck Luftfeuchtigkeit
    00:00 +33°C° 0 mm 1 m/S 706 mmHg 33%
    01:00 +32°C° 0 mm 1 m/S 706 mmHg 33%
    02:00 +32°C° 0 mm 1 m/S 706 mmHg 34%
    03:00 +31°C° 0 mm 1 m/S 706 mmHg 34%
    04:00 +31°C° 0 mm 1 m/S 706 mmHg 33%
    05:00 +30°C° 0 mm 1 m/S 706 mmHg 33%
    06:00 +31°C° 0 mm 1 m/S 706 mmHg 31%
    07:00 +32°C° 0 mm 1 m/S 707 mmHg 28%
    08:00 +33°C° 0 mm 1 m/S 707 mmHg 26%
    09:00 +34°C° 0 mm 1 m/S 707 mmHg 24%
    10:00 +36°C° 0 mm 2 m/S 707 mmHg 22%
    11:00 +37°C° 0 mm 2 m/S 707 mmHg 20%
    12:00 +38°C° 0 mm 2 m/S 707 mmHg 18%
    13:00 +39°C° 0 mm 3 m/S 706 mmHg 16%
    14:00 +40°C° 0 mm 3 m/S 706 mmHg 14%
    15:00 +41°C° 0 mm 4 m/S 706 mmHg 15%
    16:00 +41°C° 0 mm 5 m/S 705 mmHg 15%
    17:00 +41°C° 0 mm 5 m/S 705 mmHg 16%
    18:00 +40°C° 0 mm 5 m/S 705 mmHg 21%
    19:00 +37°C° 0 mm 4 m/S 705 mmHg 26%
    20:00 +36°C° 0 mm 4 m/S 705 mmHg 32%
    21:00 +35°C° 0 mm 3 m/S 706 mmHg 35%
    22:00 +35°C° 0 mm 2 m/S 706 mmHg 38%
    23:00 +33°C° 0 mm 1 m/S 706 mmHg 41%

    7 Juni, Sonntag

    Zeit Temperatur Niederschläge Wind Luftdruck Luftfeuchtigkeit
    00:00 +32°C° 0 mm 1 m/S 706 mmHg 42%
    01:00 +32°C° 0 mm 1 m/S 706 mmHg 43%
    02:00 +31°C° 0 mm 1 m/S 706 mmHg 44%
    03:00 +30°C° 0 mm 1 m/S 706 mmHg 46%
    04:00 +28°C° 0 mm 0 m/S 706 mmHg 47%
    05:00 +27°C° 0 mm 0 m/S 706 mmHg 49%
    06:00 +28°C° 0 mm 0 m/S 706 mmHg 45%
    07:00 +29°C° 0 mm 0 m/S 706 mmHg 41%
    08:00 +30°C° 0 mm 0 m/S 706 mmHg 37%
    09:00 +34°C° 0 mm 1 m/S 706 mmHg 32%
    10:00 +35°C° 0 mm 1 m/S 706 mmHg 28%
    11:00 +36°C° 0 mm 1 m/S 706 mmHg 23%
    12:00 +37°C° 0 mm 1 m/S 706 mmHg 20%
    13:00 +39°C° 0 mm 1 m/S 706 mmHg 17%
    14:00 +40°C° 0 mm 1 m/S 705 mmHg 14%
    15:00 +41°C° 0 mm 2 m/S 705 mmHg 13%
    16:00 +41°C° 0 mm 2 m/S 705 mmHg 12%
    17:00 +42°C° 0 mm 3 m/S 704 mmHg 11%
    18:00 +40°C° 0 mm 3 m/S 704 mmHg 16%
    19:00 +39°C° 0 mm 3 m/S 704 mmHg 21%
    20:00 +37°C° 0 mm 3 m/S 705 mmHg 26%
    21:00 +36°C° 0 mm 2 m/S 705 mmHg 30%
    22:00 +36°C° 0 mm 2 m/S 705 mmHg 33%
    23:00 +34°C° 0 mm 1 m/S 705 mmHg 37%
    Mehr zeigen